• MPC Preparation (Info)

  • MPEC 2005-B08 : 2005 BD

    The following Minor Planet Electronic Circular may be linked-to from your own Web pages, but must not otherwise be redistributed electronically.

    A form allowing access to any MPEC is at the bottom of this page.


    Read MPEC 2005-B07 Read MPEC 2005-B09


    M.P.E.C. 2005-B08                                Issued 2005 Jan. 17, 05:24 UT
    
         The Minor Planet Electronic Circulars contain information on unusual
             minor planets and routine data on comets.  They are published
       on behalf of Commission 20 of the International Astronomical Union by the
              Minor Planet Center, Smithsonian Astrophysical Observatory,
                              Cambridge, MA 02138, U.S.A.
    
                      Supported in part by the Brinson Foundation
                 Prepared using the Tamkin Foundation Computer Network
    
                                  MPC@CFA.HARVARD.EDU
              URL http://cfa-www.harvard.edu/iau/mpc.html  ISSN 1523-6714
    
                                        2005 BD
    
    Observations:
         K05B00D* C2005 01 16.16761 08 01 12.10 +36 36 30.0          18.5 R EB008699
         K05B00D  C2005 01 16.18398 08 01 36.13 +36 40 07.7                 EB008699
         K05B00D  C2005 01 16.21748 08 02 25.30 +36 47 28.4                 EB008699
         K05B00D  C2005 01 16.23380 08 02 49.11 +36 51 01.6                 EB008699
         K05B00D 5C2005 01 16.36424 08 05 59.80 +37 18 30.1          17.8 R EB008673
         K05B00D 5C2005 01 16.36557 08 06 01.58 +37 18 45.3                 EB008673
         K05B00D  C2005 01 16.36724 08 06 02.47 +37 19 01.5          18.4 R EB008699
         K05B00D 5C2005 01 16.36800 08 06 05.11 +37 19 15.0                 EB008673
         K05B00D 5C2005 01 16.36973 08 06 07.66 +37 19 37.2                 EB008673
         K05B00D  C2005 01 16.37052 08 06 07.15 +37 19 42.0                 EB008699
         K05B00D 5C2005 01 16.37193 08 06 10.81 +37 20 03.7                 EB008673
         K05B00D  C2005 01 16.37380 08 06 11.83 +37 20 20.6                 EB008699
         K05B00D  C2005 01 16.37708 08 06 16.74 +37 21 00.6                 EB008699
         K05B00D 5C2005 01 16.37801 08 06 19.60 +37 21 17.9                 EB008673
         K05B00D  C2005 01 16.37952 08 06 19.93 +37 21 41.6          19.1 R EB008854
         K05B00D  C2005 01 16.38213 08 06 23.70 +37 22 12.1          19.0 R EB008854
         K05B00D  C2005 01 16.38472 08 06 27.49 +37 22 43.3          19.0 R EB008854
         K05B00D  C2005 01 16.41074 08 07 04.28 +37 27 48.6          18.9 R EB008448
         K05B00D  C2005 01 16.41438 08 07 09.63 +37 28 32.2          20.0 R EB008448
         K05B00D 2C2005 01 16.42800 08 07 29.46 +37 31 08.0          18.1 R EB008H06
         K05B00D  C2005 01 16.42804 08 07 29.74 +37 31 12.2          18.9 R EB008448
         K05B00D  C2005 01 16.43124 08 07 34.42 +37 31 49.8          18.5 R EB008448
         K05B00D  C2005 01 16.43430 08 07 38.90 +37 32 25.8          19.0 R EB008448
         K05B00D 2C2005 01 16.43449 08 07 38.97 +37 32 24.5          18.2 R EB008H06
         K05B00D 2C2005 01 16.44081 08 07 48.29 +37 33 38.0          18.4 R EB008H06
         K05B00D 3C2005 01 16.44804 08 07 58.93 +37 35 02.7          18.9 V EB008H06
         K05B00D 3C2005 01 16.45111 08 08 03.49 +37 35 38.7          18.5 V EB008H06
         K05B00D 3C2005 01 16.45504 08 08 09.37 +37 36 24.1          19.4 V EB008H06
         K05B00D  C2005 01 16.84978 08 18 44.47 +38 52 11.2                 EB008J95
         K05B00D  C2005 01 16.85400 08 18 50.89 +38 53 00.8                 EB008J95
         K05B00D  C2005 01 16.85915 08 18 58.62 +38 54 01.0          18.9 R EB008J95
         K05B00D  C2005 01 16.92603 08 20 36.68 +39 07 17.3                 EB008246
         K05B00D  C2005 01 16.92637 08 20 37.25 +39 07 21.0                 EB008246
         K05B00D  C2005 01 16.92668 08 20 37.73 +39 07 25.0                 EB008246
         K05B00D  C2005 01 16.92706 08 20 38.23 +39 07 28.8                 EB008246
         K05B00D  C2005 01 16.92740 08 20 38.75 +39 07 32.8                 EB008246
         K05B00D  C2005 01 16.92782 08 20 39.38 +39 07 37.2                 EB008246
         K05B00D  C2005 01 16.92935 08 20 41.08 +39 07 58.2                 EB008118
         K05B00D  C2005 01 16.93286 08 20 46.31 +39 08 37.5                 EB008118
         K05B00D  C2005 01 16.93404 08 20 47.96 +39 08 50.0                 EB008118
         K05B00D  C2005 01 16.93638 08 20 51.54 +39 09 17.1                 EB008118
         K05B00D  C2005 01 16.93756 08 20 53.22 +39 09 29.2                 EB008118
    
    Observer details:
    118 Modra.  Observer L. Kornos.  0.6-m f/5.5 reflector + CCD.
    246 Klet Observatory-KLENOT.  Observers M. Tichy, J. Ticha.  Measurer M. Tichy.
        1.06-m KLENOT Telescope + CCD.
    448 Desert Moon Observatory.  Observer B. L. Stevens.  0.3-m
        Schmidt-Cassegrain + CCD.
    673 Table Mountain Observatory, Wrightwood.  Observer J. Young.  0.6-m
        reflector + CCD.
    699 Lowell Observatory-LONEOS.  Observer M. E. Van Ness.  0.59-m LONEOS
        Schmidt + CCD.
    854 Sabino Canyon Observatory, Tucson.  Observer J. E. McGaha.  0.36-m f/10.0
        Schmidt-Cassegrain + CCD.
    H06 New Mexico Skies Observatory.  Observers R. Hutsebaut, J. Sue.  0.25-m
        reflector + CCD, 0.30-m reflector + CCD.
    J95 Great Shefford.  Observer P. Birtwhistle.  0.30-m f/6.3 Schmidt-Cassegrain
        + CCD.
    
    Orbital elements:
    2005 BD
    Epoch 2005 Jan. 30.0 TT = JDT 2453400.5                 MPC
    M   6.59638              (2000.0)            P               Q
    n   0.37016901     Peri.  359.07438     -0.36577143     -0.91898563
    a   1.9210382      Node   112.36895     +0.85492468     -0.39428270
    e   0.4691004      Incl.    9.16106     +0.36785195     +0.00256439
    P   2.66           H   25.2           G   0.15           U   7
    Residuals in seconds of arc
    050116 699  1.2+  0.3+    050116 854  0.7+  1.4+    050116 J95  0.3+  0.1-
    050116 699  0.8-  0.3+    050116 854  0.5+  0.4+    050116 J95  0.4+  0.1-
    050116 699  1.0-  0.4-    050116 854  0.9+  0.4+    050116 J95  0.6-  0.3-
    050116 699  1.0-  0.1-    050116 448  0.4-  0.4-    050116 246  0.8-  0.5+
    050116 673  1.3+  0.4+    050116 448  0.1-  0.2+    050116 246  0.0   0.3+
    050116 673  0.4-  0.7-    050116 H06  0.3+  0.8-    050116 246  0.2+  0.8+
    050116 699  0.6+  0.4+    050116 448  0.7+  0.5-    050116 246  0.5-  0.3+
    050116 673  0.2-  0.7-    050116 448  0.4+  0.4-    050116 246  0.3-  0.5+
    050116 673  0.3+  0.4+    050116 448  0.2+  0.3-    050116 246  0.3-  0.1+
    050116 699  0.3-  1.0+    050116 H06  0.2-  0.3-    050116 118  0.0   0.5+
    050116 673  0.1-  0.0     050116 H06  0.4-  0.5-    050116 118  0.4+  0.3+
    050116 699  1.2-  0.1-    050116 H06  1.0-  0.1+    050116 118  0.7-  0.5-
    050116 699  0.6+  0.2+    050116 H06  0.9-  0.4+    050116 118  0.8+  0.4+
    050116 673  0.2-  0.1+    050116 H06  0.3-  0.3+    050116 118  0.0   0.8-
    
    Ephemeris:
    2005 BD                  a,e,i = 1.92, 0.47, 9                   q = 1.0199
    Date    TT    R. A. (2000) Decl.     Delta      r     Elong.  Phase     V
    2005 01 10    05 52.21   +09 26.0    0.041    1.020   154.3    24.7    19.4
    2005 01 11    06 08.24   +13 47.2    0.039    1.020   159.0    20.2    19.2
    2005 01 12    06 26.20   +18 23.5    0.038    1.020   163.7    15.7    19.0
    2005 01 13    06 46.16   +23 06.3    0.037    1.020   167.8    11.8    18.8
    2005 01 14    07 08.07   +27 44.5    0.037    1.020   169.8     9.8    18.7
    2005 01 15    07 31.71   +32 06.2    0.037    1.020   168.5    11.1    18.8
    2005 01 16    07 56.69   +36 00.9    0.038    1.021   164.9    14.5    19.0
    2005 01 17    08 22.43   +39 21.4    0.040    1.021   160.6    18.7    19.2
    2005 01 18    08 48.26   +42 04.7    0.042    1.022   156.2    22.8    19.4
    2005 01 19    09 13.48   +44 11.5    0.044    1.023   152.2    26.7    19.7
    2005 01 20    09 37.46   +45 45.5    0.046    1.024   148.6    30.1    19.9
    2005 01 21    09 59.78   +46 51.6    0.049    1.025   145.4    33.1    20.1
    2005 01 22    10 20.18   +47 35.3    0.052    1.026   142.6    35.6    20.3
    2005 01 23    10 38.56   +48 01.7    0.056    1.028   140.2    37.8    20.5
    2005 01 24    10 54.96   +48 15.0    0.059    1.029   138.2    39.6    20.7
    2005 01 25    11 09.50   +48 18.9    0.063    1.031   136.5    41.1    20.9
    2005 01 26    11 22.35   +48 15.9    0.066    1.032   135.0    42.4    21.0
    2005 01 27    11 33.67   +48 08.1    0.070    1.034   133.8    43.4    21.2
    2005 01 28    11 43.65   +47 57.1    0.074    1.036   132.8    44.2    21.3
    2005 01 29    11 52.44   +47 44.0    0.078    1.038   131.9    44.9    21.5
    2005 01 30    12 00.19   +47 29.6    0.082    1.041   131.2    45.4    21.6
    2005 01 31    12 07.03   +47 14.3    0.086    1.043   130.7    45.7    21.7
    2005 02 01    12 13.07   +46 58.7    0.090    1.046   130.3    46.0    21.8
    2005 02 02    12 18.40   +46 43.0    0.094    1.048   129.9    46.1    21.9
    2005 02 03    12 23.11   +46 27.5    0.098    1.051   129.7    46.2    22.0
    2005 02 04    12 27.27   +46 12.1    0.102    1.054   129.6    46.2    22.1
    2005 02 05    12 30.95   +45 57.0    0.106    1.057   129.5    46.1    22.2
    2005 02 06    12 34.19   +45 42.3    0.110    1.060   129.5    45.9    22.3
    2005 02 07    12 37.03   +45 27.8    0.114    1.063   129.5    45.7    22.4
    2005 02 08    12 39.53   +45 13.8    0.119    1.066   129.6    45.5    22.4
    2005 02 09    12 41.72   +45 00.0    0.123    1.069   129.8    45.2    22.5
    
    Timothy B. Spahr             (C) Copyright 2005 MPC           M.P.E.C. 2005-B08
    

    Read MPEC 2005-B07 Read MPEC 2005-B09


    MPEC number:

    Enter an MPEC number in one of the following forms:

    • 1997-B01 (the full form)
    • J97B01 (the packed version of the full form)
    • B01 (the abbreviated form)